Kleine Brogel, Belgium

5:18 AM CET on February 23, 2017 (GMT +0100)
Kleine-Brogel Air Base

Weather History for EBBL - September, 2013

Change the Weather History Date:

Friday, September 27, 2013

  Actual Average Record
Temperature  
Mean Temperature 51 °F -  
Max Temperature 64 °F 55 °F 75 °F (2011)
Min Temperature 38 °F 45 °F 35 °F (2008)
Degree Days  
Heating Degree Days 14    
Growing Degree Days 1 (Base 50)    
Moisture  
Dew Point 46 °F    
Average Humidity 86    
Maximum Humidity 100    
Minimum Humidity 56    
Precipitation  
Precipitation 0.00 in - - ()
Sea Level Pressure  
Sea Level Pressure 30.04 in    
Wind  
Wind Speed 3 mph ()    
Max Wind Speed 8 mph    
Max Gust Speed -    
Visibility 4.4 miles    
Events Fog    
Averages and records for this station are not official NWS values.
T = Trace of Precipitation, MM = Missing Value Source: Averaged Metar Reports

Daily Weather History Graph

Daily Weather History Graph

Search for Another Location

Airport or City:

Trip Planner

Search our weather history database for the weather conditions in past years. The results will help you decide how hot, cold, wet, or windy it might be!

Date:

Astronomy

Sep. 27, 2013 Rise Set
Actual Time 7:32 AM CEST 7:24 PM CEST
Civil Twilight 6:59 AM CEST 7:57 PM CEST
Nautical Twilight 6:20 AM CEST 8:36 PM CEST
Astronomical Twilight 5:40 AM CEST 9:16 PM CEST
Moon No Moon Rise 3:27 PM CEST (9/27)
Length of Visible Light 12h 58m
Length of Day
11h 52m
Waning Gibbous, 48% of the Moon is Illuminated
Sep 27
Waning Gibbous
Oct 5
New
Oct 12
First Quarter
Oct 19
Full
Oct 27
Last Quarter

Hourly Weather History & Observations

Time (CEST) Temp. Windchill Dew Point Humidity Pressure Visibility Wind Dir Wind Speed Gust Speed Precip Events Conditions
12:25 AM 44.6 °F - 44.6 °F 100% 30.06 in 6.2 mi Variable 1.2 mph - N/A   Partly Cloudy
12:55 AM 42.8 °F - 42.8 °F 100% 30.06 in 6.2 mi Variable 1.2 mph - N/A   Clear
1:55 AM 42.8 °F - 42.8 °F 100% 30.06 in 1.6 mi Variable 2.3 mph - N/A   Unknown
2:21 AM 42.8 °F - 42.8 °F 100% 30.06 in 6.2 mi Variable 1.2 mph - N/A   Clear
2:25 AM 42.8 °F - 42.8 °F 100% 30.06 in 6.2 mi Variable 1.2 mph - N/A   Clear
2:55 AM 42.8 °F - 42.8 °F 100% 30.06 in 6.2 mi Variable 2.3 mph - N/A Fog Shallow Fog
3:25 AM 41.0 °F - 41.0 °F 100% 30.06 in 6.2 mi Variable 2.3 mph - N/A Fog Shallow Fog
3:55 AM 41.0 °F - 41.0 °F 100% 30.06 in 6.2 mi Variable 2.3 mph - N/A Fog Shallow Fog
4:25 AM 41.0 °F - 39.2 °F 93% 30.06 in 6.2 mi Variable 1.2 mph - N/A Fog Shallow Fog
4:55 AM 41.0 °F - 41.0 °F 100% 30.06 in 1.4 mi Variable 2.3 mph - N/A Fog Fog
5:00 AM 40 °F - 40 °F 100% 30.08 in 1 mi 2.2 mph - - Fog Patches of Fog
5:55 AM 39.2 °F - 39.2 °F 100% 30.06 in 0.4 mi Variable 1.2 mph - N/A Fog Fog
6:55 AM 41.0 °F - 41.0 °F 100% 30.04 in 0.1 mi Variable 1.2 mph - N/A Fog Fog
7:55 AM 42.8 °F - 42.8 °F 100% 30.06 in 0.1 mi Variable 1.2 mph - N/A Fog Fog
8:00 AM 43 °F - 43 °F 99% 30.07 in 0 mi 2.2 mph - - Fog Partial Fog
8:25 AM 44.6 °F 42.2 °F 42.8 °F 93% 30.06 in 0.1 mi ENE 4.6 mph - N/A Fog Fog
8:55 AM 44.6 °F 43.1 °F 44.6 °F 100% 30.06 in 0.1 mi ENE 3.5 mph - N/A Fog Fog
9:25 AM 44.6 °F 43.1 °F 44.6 °F 100% 30.06 in 0.1 mi ENE 3.5 mph - N/A Fog Fog
9:55 AM 44.6 °F 43.1 °F 44.6 °F 100% 30.06 in 0.1 mi ENE 3.5 mph - N/A Fog Fog
10:25 AM 46.4 °F 44.3 °F 46.4 °F 100% 30.06 in 0.1 mi ENE 4.6 mph - N/A Fog Fog
10:55 AM 46.4 °F 44.3 °F 46.4 °F 100% 30.06 in 0.1 mi ENE 4.6 mph - N/A Fog Fog
11:25 AM 46.4 °F 44.3 °F 46.4 °F 100% 30.06 in 0.3 mi East 4.6 mph - N/A Fog Fog
11:41 AM 50.0 °F - 48.2 °F 94% 30.06 in 0.5 mi ENE 4.6 mph - N/A Fog Fog
11:55 AM 48.2 °F - 48.2 °F 100% 30.06 in 0.7 mi ENE 3.5 mph - N/A   Overcast
12:21 PM 50.0 °F - 48.2 °F 94% 30.06 in 1.6 mi East 5.8 mph - N/A   Mostly Cloudy
12:35 PM 53.6 °F - 50.0 °F 88% 30.06 in 2.5 mi ENE 4.6 mph - N/A   Scattered Clouds
12:48 PM 55.4 °F - 50.0 °F 82% 30.04 in 3.7 mi SE 3.5 mph - N/A   Scattered Clouds
12:51 PM 57.2 °F - 50.0 °F 77% 30.04 in 4.3 mi SE 3.5 mph - N/A   Partly Cloudy
12:55 PM 57.2 °F - 50.0 °F 77% 30.04 in 5.0 mi East 3.5 mph - N/A   Partly Cloudy
1:25 PM 60.8 °F - 50.0 °F 68% 30.04 in 6.2 mi ENE 6.9 mph - N/A   Scattered Clouds
1:40 PM 60.8 °F - 50.0 °F 68% 30.04 in 6.2 mi East 6.9 mph - N/A   Scattered Clouds
1:55 PM 60.8 °F - 50.0 °F 68% 30.04 in 6.2 mi ENE 5.8 mph - N/A   Scattered Clouds
2:00 PM 61 °F - 50 °F 57% 30.05 in 12 mi ENE 4.5 mph - -   Partly Cloudy
2:25 PM 64.4 °F - 50.0 °F 59% 30.04 in 6.2 mi NE 6.9 mph - N/A   Scattered Clouds
2:55 PM 62.6 °F - 48.2 °F 59% 30.04 in 6.2 mi ENE 6.9 mph - N/A   Scattered Clouds
3:25 PM 62.6 °F - 48.2 °F 59% 30.01 in 6.2 mi ENE 6.9 mph - N/A   Scattered Clouds
3:55 PM 64.4 °F - 50.0 °F 59% 30.01 in 6.2 mi ENE 6.9 mph - N/A   Scattered Clouds
4:25 PM 64.4 °F - 48.2 °F 56% 30.01 in 6.2 mi East 6.9 mph - N/A   Scattered Clouds
4:55 PM 62.6 °F - 48.2 °F 59% 30.01 in 6.2 mi ENE 8.1 mph - N/A   Scattered Clouds
5:25 PM 60.8 °F - 48.2 °F 63% 30.01 in 6.2 mi ENE 8.1 mph - N/A   Scattered Clouds
5:55 PM 60.8 °F - 48.2 °F 63% 30.01 in 6.2 mi ENE 8.1 mph - N/A   Scattered Clouds
6:25 PM 60.8 °F - 48.2 °F 63% 30.01 in 6.2 mi ENE 6.9 mph - N/A   Scattered Clouds
6:55 PM 57.2 °F - 48.2 °F 72% 30.01 in 6.2 mi ENE 5.8 mph - N/A   Mostly Cloudy
7:25 PM 53.6 °F - 48.2 °F 82% 30.01 in 6.2 mi NNE 3.5 mph - N/A   Mostly Cloudy
7:55 PM 53.6 °F - 48.2 °F 82% 30.01 in 6.2 mi NE 4.6 mph - N/A   Mostly Cloudy
8:00 PM 53 °F - 49 °F 80% 30.01 in 9 mi NE 4.5 mph - -   Clear
8:25 PM 51.8 °F - 48.2 °F 88% 30.01 in 6.2 mi NE 4.6 mph - N/A   Mostly Cloudy
8:55 PM 51.8 °F - 48.2 °F 88% 30.01 in 6.2 mi NE 5.8 mph - N/A   Scattered Clouds
9:25 PM 50.0 °F - 46.4 °F 87% 30.01 in 6.2 mi NE 4.6 mph - N/A   Scattered Clouds
9:55 PM 48.2 °F - 44.6 °F 87% 30.01 in 6.2 mi ENE 3.5 mph - N/A   Scattered Clouds
10:25 PM 48.2 °F - 44.6 °F 87% 30.01 in 6.2 mi East 4.6 mph - N/A   Partly Cloudy
10:55 PM 48.2 °F - 44.6 °F 87% 30.01 in 6.2 mi Variable 2.3 mph - N/A   Scattered Clouds
11:25 PM 46.4 °F 45.2 °F 44.6 °F 93% 29.98 in 6.2 mi ENE 3.5 mph - N/A   Scattered Clouds
11:55 PM 46.4 °F 44.3 °F 42.8 °F 87% 29.98 in 6.2 mi East 4.6 mph - N/A   Scattered Clouds